Webcams

EDPO Webcam Blick Richtung Osten (local time)

Webcam-2

Info zum Bild:

  • Blick zum Kloster Mariahilf, Entfernung ca. 3km
  • Blick zur Kirche St. Johannes, Entfernung ca. 1km
  • Blick zu den beiden Windrädern, Entfernung ca. 6km

EDPO Webcam Blick Richtung Westen (local time)

Webcam-1

Info zum Bild:

  • Blick zum Tyrolsberg, Entfernung ca. 3,5km

Dillberg Webcam Blick Richtung Osten zu EDPO (local time)

Webcam-1

Info zum Bild:

  • Blick vom Dillberg Richtung Neumarkt, Höhe 555ft über EDPO

Dillberg Webcam Blick Richtung Westen zum Sender (local time)

Webcam-1

Info zum Bild:

  • Blick vom Dillberg Sender, Höhe bis Spitze 1322ft über EDPO
  • 600m Entfernung / Sichtweite von CAM zum Dillberg Sender

Sparkasse Webcam Blick Richtung Nord-West über Neumarkt


Snapshot

Info zum Bild:

Nürnberger Fernsehturm (Rundum CAM)


METAR Informationen der nächstgelegenen Flughäfen


EDDN / Flughafen Nürnberg „Albrecht Dürer“

EDDN 250550Z 28011KT 240V300 9999 FEW015 SCT023 13/09 Q1000 TEMPO 28015G25KT

ETIC / Fliegerhorst Grafenwöhr AAF

ETIC 250556Z 00000KT 9999 BKN016 OVC039 13/12 A2950 RMK AO2A SLP986 60010 10139 20128 55005 $

ETIH / Fliegerhorst Hohenfels AAF

ETIH 250556Z AUTO 00000KT 9999 FEW012 BKN060 13/11 A2954 RMK AO2 SLP999 60003 T01270113 10132 20126 55005 $